Location: Knowlton
(51.2333°N, 1.2667°E)
Time: 10:12:58
(UTC+00:00)

Cosmos 2026 Rocket - Pass Details

Date: 18 April 2021
Orbit: 938 x 1002 km, 82.9° (Epoch: 05 May)

Event Time Altitude Azimuth Distance (km) Brightness Sun altitude
Rises 19:39:24 0° 351° (N) 3,614 7.6 -7.0°
Reaches altitude 10° 19:41:55 10° 353° (N) 2,666 6.8 -7.4°
Maximum altitude 19:47:59 70° 78° (ENE) 1,001 4.0 -8.2°
Drops below altitude 10° 19:54:03 10° 162° (SSE) 2,669 5.9 -9.0°
Enters shadow 19:56:30 - 165° (SSE) 3,590 6.5 -9.3°
